Location: Nasgenstadt
(48.2786°N, 9.7553°E)
Time: 06:51:31
(UTC+01:00)

Amateur Radio Satellites - All Passes

Search period start: 25 November 2017 06:21
Search period end: 26 November 2017 06:21
Location: Nasgenstadt, 48.2786°N, 9.7553°E

Satellite Date Start Highest point End Downlink Frequencies (MHz)
Time Altitude Azimuth
XW-2D 25 Nov 06:27:22 06:31:11 67° 102° (ESE) 06:35:00 145.860 - 145.880
DOVE 4 25 Nov 06:33:41 06:38:14 32° 296° (WNW) 06:42:34 437.250
NUDT-PHONESAT 25 Nov 06:38:50 06:42:32 61° 101° (E) 06:46:13 437.300
STRAND 1 25 Nov 06:42:13 06:47:21 76° 73° (ENE) 06:52:31 437.568
XW-2B 25 Nov 06:42:22 06:46:12 86° 284° (WNW) 06:50:02 145.730 - 145.750
XW-2C 25 Nov 07:08:25 07:12:03 42° 289° (WNW) 07:15:40 145.795 - 145.815
CUTE 1.7 + AOD 2 25 Nov 07:10:18 07:14:27 47° 99° (E) 07:18:36 437.475
YUBILEINY 25 Nov 07:12:53 07:20:44 35° 295° (WNW) 07:28:42 435.215
CUBEBUG 2 25 Nov 07:14:27 07:18:09 30° 95° (E) 07:21:49 437.445
XW-2F 25 Nov 07:15:10 07:18:43 38° 290° (WNW) 07:22:16 145.980 - 146.000
LilacSat-2 25 Nov 07:15:52 07:19:21 34° 291° (WNW) 07:22:51 437.200
HO-68 25 Nov 07:22:59 07:30:06 59° 102° (ESE) 07:37:09 435.675
AAUSAT CUBESAT 2 25 Nov 07:26:48 07:30:00 21° 92° (E) 07:33:10 437.432
SEEDS 25 Nov 07:32:26 07:36:36 50° 100° (E) 07:40:44 437.485
KAITUO 1B 25 Nov 07:35:48 07:39:06 29° 292° (WNW) 07:42:24 145.475/437.950
ZACube-1 25 Nov 07:43:20 07:46:24 20° 92° (E) 07:49:30 437.345
AO-7 25 Nov 07:54:21 07:56:43 11° 332° (NNW) 07:59:05 .
PCSat 25 Nov 07:55:11 08:00:33 56° 50° (NE) 08:05:53 145.827
CUTE-I 25 Nov 08:01:05 08:05:48 32° 297° (WNW) 08:10:29 437.470
UWE-3 25 Nov 08:02:03 08:06:08 55° 100° (E) 08:10:13 435.000/436.395/437.385
XW-2D 25 Nov 08:03:05 08:04:51 13° 299° (WNW) 08:06:37 145.860 - 145.880
FO-29 25 Nov 08:04:09 08:11:07 87° 256° (WSW) 08:18:52 435.910
NUDT-PHONESAT 25 Nov 08:14:04 08:15:55 13° 299° (WNW) 08:17:46 437.300
BEESAT 3 25 Nov 08:16:20 08:18:24 14° 26° (NNE) 08:20:28 437.485
STRAND 1 25 Nov 08:23:54 08:27:07 16° 271° (W) 08:30:20 437.568
XW-2A 25 Nov 08:28:02 08:31:24 73° 285° (WNW) 08:34:47 145.665 - 145.685
AO-73 25 Nov 08:30:59 08:35:03 53° 100° (E) 08:39:09 145.935
Oscar 11 25 Nov 08:42:29 08:46:43 48° 99° (E) 08:50:55 .
PRISM 25 Nov 08:42:55 08:45:43 18° 61° (ENE) 08:48:32 437.425
CUTE 1.7 + AOD 2 25 Nov 08:46:48 08:49:59 21° 297° (WNW) 08:53:10 437.475
CUBEBUG 2 25 Nov 08:51:09 08:54:44 28° 294° (WNW) 08:58:16 437.445
DELFI C3 25 Nov 08:53:04 08:55:12 14° 89° (E) 08:57:20 145.870
UNISAT 6 25 Nov 09:01:23 09:05:52 68° 73° (ENE) 09:10:16 437.425
AAUSAT CUBESAT 2 25 Nov 09:01:39 09:05:38 42° 290° (WNW) 09:09:35 437.432
TIGRISAT 25 Nov 09:04:31 09:09:00 67° 73° (ENE) 09:13:23 435.000
Max Valier Satellite 25 Nov 09:05:15 09:06:45 12° 89° (E) 09:08:14 145.860
SEEDS 25 Nov 09:08:53 09:11:56 19° 297° (WNW) 09:14:59 437.485
HO-68 25 Nov 09:11:11 09:17:31 35° 302° (WNW) 09:23:48 435.675
ZACube-1 25 Nov 09:18:57 09:22:54 43° 290° (WNW) 09:26:52 437.345
BEESAT 2 25 Nov 09:37:44 09:40:47 20° 33° (NNE) 09:43:47 435.950
PCSat 25 Nov 09:39:06 09:43:38 28° 250° (WSW) 09:48:08 145.827
UWE-3 25 Nov 09:39:30 09:42:12 17° 299° (WNW) 09:44:55 435.000/436.395/437.385
AO-85 25 Nov 09:43:26 09:46:18 16° 27° (NNE) 09:49:17 145.980
POLYITAN 1 25 Nov 09:51:05 09:52:40 12° 57° (ENE) 09:54:16 437.675
FO-29 25 Nov 09:52:23 09:57:18 20° 277° (W) 10:02:33 435.910
BEESAT 3 25 Nov 09:52:52 09:56:47 56° 48° (NE) 10:00:38 437.485
AIST 2D 25 Nov 10:05:20 10:08:27 32° 70° (ENE) 10:11:35 435.315
AO-73 25 Nov 10:08:08 10:10:56 18° 298° (WNW) 10:13:44 145.935
QB50P2 25 Nov 10:12:56 10:16:05 21° 63° (ENE) 10:19:14 145.880/145.840
PRISM 25 Nov 10:16:31 10:20:36 55° 259° (W) 10:24:42 437.425
FALCONSAT 3 25 Nov 10:16:46 10:17:59 11° 180° (S) 10:19:12 435.103
Oscar 11 25 Nov 10:19:19 10:22:32 21° 297° (WNW) 10:25:45 .
EO-88 25 Nov 10:25:17 10:28:56 70° 100° (E) 10:32:35 145.990 - 145.960
DELFI C3 25 Nov 10:26:22 10:30:20 59° 287° (WNW) 10:34:14 145.870
ESTCUBE 1 25 Nov 10:36:05 10:37:53 12° 87° (E) 10:39:41 437.505/2401.250
LO-87 25 Nov 10:36:59 10:38:38 13° 90° (E) 10:40:17 145.935 - 145.965
Max Valier Satellite 25 Nov 10:37:18 10:40:56 58° 287° (WNW) 10:44:33 145.860
UNISAT 6 25 Nov 10:40:28 10:43:01 15° 271° (W) 10:45:33 437.425
TIGRISAT 25 Nov 10:43:31 10:46:06 15° 271° (W) 10:48:41 435.000
DUCHIFAT 1 25 Nov 10:54:28 10:58:19 36° 68° (ENE) 11:02:10 145.980
EO-79 25 Nov 11:07:02 11:11:12 61° 72° (ENE) 11:15:23 145.935-145.965
NANOSAT C BR1 25 Nov 11:07:18 11:11:25 55° 72° (ENE) 11:15:33 145.865
BEESAT 2 25 Nov 11:14:55 11:18:59 78° 235° (SW) 11:22:58 435.950
AO-85 25 Nov 11:23:03 11:27:35 58° 47° (NE) 11:32:29 145.980
AO-91 25 Nov 11:23:32 11:26:47 17° 58° (ENE) 11:29:59 145.960
POLYITAN 1 25 Nov 11:23:33 11:27:47 89° 75° (ENE) 11:32:02 437.675
Gurwin Techsat 1B 25 Nov 11:23:49 11:26:24 14° 53° (NE) 11:28:58 435.225
BUGSAT 1 25 Nov 11:30:02 11:33:21 24° 64° (ENE) 11:36:40 437.445
BEESAT 3 25 Nov 11:31:13 11:33:56 18° 247° (WSW) 11:36:38 437.485
AO-7 25 Nov 11:31:42 11:34:24 12° 29° (NNE) 11:37:07 .
AIST 2D 25 Nov 11:39:11 11:41:42 19° 267° (W) 11:44:14 435.315
QB50P2 25 Nov 11:47:30 11:51:35 46° 261° (W) 11:55:41 145.880/145.840
Oscar 19 25 Nov 12:00:05 12:04:34 32° 64° (ENE) 12:09:05 437.125/150
EO-88 25 Nov 12:00:42 12:02:03 12° 300° (WNW) 12:03:24 145.990 - 145.960
O/OREOS (USA 219) 25 Nov 12:02:05 12:05:26 20° 102° (ESE) 12:08:48 437.305
LO-87 25 Nov 12:08:53 12:12:21 50° 288° (WNW) 12:15:46 145.935 - 145.965
ESTCUBE 1 25 Nov 12:10:44 12:15:18 84° 285° (WNW) 12:19:50 437.505/2401.250
VELOX 1 25 Nov 12:12:16 12:15:24 19° 91° (E) 12:18:32 145.980
DUCHIFAT 1 25 Nov 12:30:35 12:34:03 25° 266° (W) 12:37:32 145.980
SPROUT 25 Nov 12:34:23 12:38:30 45° 99° (E) 12:42:34 437.525
NANOSAT C BR1 25 Nov 12:44:45 12:47:28 16° 270° (W) 12:50:10 145.865
EO-79 25 Nov 12:44:54 12:47:21 15° 270° (W) 12:49:48 145.935-145.965
AO-91 25 Nov 12:57:05 13:02:31 86° 76° (ENE) 13:07:50 145.960
Gurwin Techsat 1B 25 Nov 13:00:09 13:05:27 73° 72° (ENE) 13:10:47 435.225
AO-85 25 Nov 13:03:57 13:07:46 24° 245° (WSW) 13:11:47 145.980
POLYITAN 1 25 Nov 13:04:04 13:04:11 10° 273° (W) 13:04:19 437.675
BUGSAT 1 25 Nov 13:04:37 13:08:31 38° 262° (W) 13:12:24 437.445
UKube-1 25 Nov 13:16:55 13:18:49 13° 89° (E) 13:20:43 .
AO-7 25 Nov 13:17:29 13:24:45 36° 53° (NE) 13:32:05 .
Oscar 19 25 Nov 13:38:59 13:43:47 40° 262° (W) 13:48:37 437.125/150
O/OREOS (USA 219) 25 Nov 13:39:57 13:44:28 54° 300° (WNW) 13:49:00 437.305
M-CUBED/EXP-1 PRIME 25 Nov 13:43:38 13:47:21 65° 67° (ENE) 13:51:24 437.505
VELOX 1 25 Nov 13:47:48 13:52:10 53° 289° (WNW) 13:56:29 145.980
ESTCUBE 1 25 Nov 13:49:26 13:51:23 13° 304° (NW) 13:53:19 437.505/2401.250
ITAMSAT 1 25 Nov 14:02:29 14:06:54 29° 62° (ENE) 14:11:20 435.822/435.867
50 SAT 25 Nov 14:09:12 14:12:27 82° 104° (ESE) 14:15:38 437.505
SPROUT 25 Nov 14:10:54 14:14:07 21° 297° (WNW) 14:17:18 437.525
NO-84 25 Nov 14:12:09 14:15:33 41° 138° (SE) 14:19:15 435.350 FM
DX 1 25 Nov 14:18:40 14:23:04 80° 103° (ESE) 14:27:26 434.975-435.025
DOVE 4 25 Nov 14:30:50 14:32:14 11° 52° (NE) 14:33:38 437.250
ITUPSAT 1 25 Nov 14:32:26 14:34:21 12° 87° (E) 14:36:15 437.325
AO-91 25 Nov 14:36:17 14:39:31 16° 273° (W) 14:42:44 145.960
Gurwin Techsat 1B 25 Nov 14:42:24 14:45:57 18° 271° (W) 14:49:32 435.225
UKube-1 25 Nov 14:51:01 14:55:22 76° 286° (WNW) 14:59:40 .
AO-7 25 Nov 15:08:51 15:17:04 67° 254° (WSW) 15:25:23 .
YUBILEINY 25 Nov 15:20:18 15:28:29 39° 67° (ENE) 15:36:35 435.215
M-CUBED/EXP-1 PRIME 25 Nov 15:20:35 15:22:17 13° 267° (W) 15:24:03 437.505
O/OREOS (USA 219) 25 Nov 15:23:42 15:24:58 11° 322° (NW) 15:26:14 437.305
MOZHAYETS 4 25 Nov 15:36:41 15:41:15 67° 102° (ESE) 15:45:48
ITAMSAT 1 25 Nov 15:41:06 15:46:08 47° 261° (W) 15:51:13 435.822/435.867
NO-84 25 Nov 15:49:11 15:52:52 48° 339° (NNW) 15:56:49 435.350 FM
BEESAT 25 Nov 15:55:09 15:59:55 72° 103° (ESE) 16:04:40 436.000
DX 1 25 Nov 15:56:19 15:58:40 14° 303° (WNW) 16:00:59 434.975-435.025
CUBESAT XI-V 25 Nov 16:00:41 16:04:51 31° 95° (E) 16:09:01 437.345
DOVE 4 25 Nov 16:03:43 16:08:47 58° 71° (ENE) 16:14:01 437.250
ITUPSAT 1 25 Nov 16:08:04 16:12:51 89° 280° (W) 16:17:37 437.325
CUTE-I 25 Nov 16:08:38 16:12:10 18° 56° (NE) 16:15:41 437.470
HO-68 25 Nov 16:11:26 16:15:38 17° 45° (NE) 16:19:52 435.675
XW-2C 25 Nov 16:20:16 16:22:28 15° 62° (ENE) 16:24:42 145.795 - 145.815
XW-2F 25 Nov 16:26:19 16:28:42 16° 63° (ENE) 16:31:04 145.980 - 146.000
LilacSat-2 25 Nov 16:27:34 16:30:17 19° 64° (ENE) 16:33:01 437.200
UKube-1 25 Nov 16:29:31 16:30:36 11° 305° (NW) 16:31:42 .
KAITUO 1B 25 Nov 16:45:31 16:48:16 20° 65° (ENE) 16:51:02 145.475/437.950
KKS-1 25 Nov 16:55:15 16:58:55 24° 94° (E) 17:02:32 437.445
STARS 25 Nov 17:07:08 17:09:18 13° 89° (E) 17:11:28 437.465
AO-7 25 Nov 17:07:15 17:11:28 15° 276° (W) 17:15:42 .
XW-2D 25 Nov 17:11:39 17:15:17 53° 73° (ENE) 17:18:58 145.860 - 145.880
MOZHAYETS 4 25 Nov 17:14:55 17:17:56 18° 300° (WNW) 17:20:55
YUBILEINY 25 Nov 17:17:06 17:25:42 58° 270° (W) 17:34:14 435.215
NUDT-PHONESAT 25 Nov 17:20:56 17:24:24 44° 71° (ENE) 17:27:56 437.300
RS-15 25 Nov 17:24:30 17:35:26 40° 108° (ESE) 17:46:18 29.354- 29.394
XW-2B 25 Nov 17:26:34 17:30:17 76° 76° (ENE) 17:34:03 145.730 - 145.750
NO-84 25 Nov 17:27:17 17:30:51 31° 0° (N) 17:34:36 435.350 FM
BEESAT 25 Nov 17:34:03 17:37:10 18° 302° (WNW) 17:40:16 436.000
CUBESAT XI-V 25 Nov 17:37:59 17:42:14 35° 293° (WNW) 17:46:30 437.345
DOVE 4 25 Nov 17:42:46 17:46:49 23° 270° (W) 17:50:58 437.250
CUTE-I 25 Nov 17:46:09 17:51:32 85° 255° (WSW) 17:56:58 437.470
ITUPSAT 1 25 Nov 17:47:29 17:49:59 14° 304° (NW) 17:52:28 437.325
XW-2C 25 Nov 17:52:37 17:56:15 52° 260° (W) 17:59:57 145.795 - 145.815
HO-68 25 Nov 17:54:59 18:02:03 63° 67° (ENE) 18:09:10 435.675
XW-2F 25 Nov 17:58:51 18:02:27 47° 261° (W) 18:06:06 145.980 - 146.000
LilacSat-2 25 Nov 18:00:46 18:04:18 39° 262° (W) 18:07:54 437.200
CUTE 1.7 + AOD 2 25 Nov 18:06:03 18:10:09 52° 72° (ENE) 18:14:16 437.475
CUBEBUG 2 25 Nov 18:15:27 18:19:40 41° 70° (ENE) 18:23:47 437.445
KAITUO 1B 25 Nov 18:18:38 18:22:02 35° 263° (W) 18:25:29 145.475/437.950
AAUSAT CUBESAT 2 25 Nov 18:20:15 18:23:29 22° 64° (ENE) 18:26:44 437.432
SEEDS 25 Nov 18:27:09 18:31:13 54° 72° (ENE) 18:35:20 437.485
KKS-1 25 Nov 18:31:25 18:35:37 41° 292° (WNW) 18:39:47 437.445
STARS 25 Nov 18:41:46 18:46:10 73° 286° (WNW) 18:50:30 437.465
ZACube-1 25 Nov 18:42:25 18:45:54 25° 65° (ENE) 18:49:20 437.345
XW-2D 25 Nov 18:47:51 18:49:47 14° 270° (W) 18:51:45 145.860 - 145.880
STRAND 1 25 Nov 18:49:51 18:53:30 19° 90° (E) 18:57:08 437.568
NUDT-PHONESAT 25 Nov 18:56:18 18:58:30 15° 269° (W) 19:00:43 437.300
UWE-3 25 Nov 19:02:01 19:06:22 70° 74° (ENE) 19:10:37 435.000/436.395/437.385
XW-2A 25 Nov 19:02:03 19:05:19 61° 74° (ENE) 19:08:37 145.665 - 145.685
NO-84 25 Nov 19:04:52 19:08:51 47° 21° (NNE) 19:12:59 435.350 FM
FO-29 25 Nov 19:11:58 19:16:10 15° 80° (E) 19:20:13 435.910
ISS 25 Nov 19:16:22 19:18:41 18° 139° (SE) 19:21:00 437.550
YUBILEINY 25 Nov 19:17:24 19:20:25 12° 292° (WNW) 19:23:25 435.215
AO-73 25 Nov 19:29:33 19:33:44 64° 74° (ENE) 19:37:53 145.935
CUTE-I 25 Nov 19:29:53 19:32:23 13° 274° (W) 19:34:54 437.470
RS-15 25 Nov 19:34:45 19:47:09 77° 312° (NW) 19:59:23 29.354- 29.394
Oscar 11 25 Nov 19:40:24 19:44:36 58° 72° (ENE) 19:48:52 .
DELFI C3 25 Nov 19:41:58 19:44:08 14° 60° (ENE) 19:46:19 145.870
CUTE 1.7 + AOD 2 25 Nov 19:43:29 19:46:17 17° 270° (W) 19:49:07 437.475
HO-68 25 Nov 19:44:02 19:50:14 31° 267° (W) 19:56:29 435.675
Max Valier Satellite 25 Nov 19:48:47 19:49:22 10° 59° (ENE) 19:49:58 145.860
nSIGHT-1 25 Nov 19:51:56 19:54:57 39° 147° (SSE) 19:57:59 .
CUBEBUG 2 25 Nov 19:52:49 19:56:26 23° 267° (W) 19:59:59 437.445
AAUSAT CUBESAT 2 25 Nov 19:54:48 19:58:42 40° 263° (W) 20:02:39 437.432
SEEDS 25 Nov 20:04:33 20:07:13 17° 270° (W) 20:09:56 437.485
ZACube-1 25 Nov 20:18:06 20:22:03 36° 263° (W) 20:25:56 437.345
STARS 25 Nov 20:20:47 20:21:41 11° 306° (NW) 20:22:35 437.465
SO-50 25 Nov 20:25:35 20:29:16 25° 115° (ESE) 20:32:59 436.795
STRAND 1 25 Nov 20:28:04 20:33:08 64° 289° (WNW) 20:38:10 437.568
O/OREOS (USA 219) 25 Nov 20:29:06 20:31:20 13° 41° (NE) 20:33:33 437.305
UWE-3 25 Nov 20:41:05 20:43:16 13° 271° (W) 20:45:26 435.000/436.395/437.385
NO-84 25 Nov 20:42:13 20:46:18 50° 220° (SW) 20:50:26 435.350 FM
ISS 25 Nov 20:51:30 20:54:47 86° 154° (SSE) 20:58:05 437.550
UNISAT 6 25 Nov 20:52:38 20:52:42 10° 86° (E) 20:52:47 437.425
FO-29 25 Nov 20:54:49 21:02:41 69° 101° (E) 21:09:58 435.910
EO-88 25 Nov 21:05:53 21:09:23 49° 72° (ENE) 21:12:55 145.990 - 145.960
AO-73 25 Nov 21:08:10 21:10:23 14° 271° (W) 21:12:37 145.935
DELFI C3 25 Nov 21:14:26 21:18:23 65° 259° (W) 21:22:23 145.870
LO-87 25 Nov 21:17:30 21:18:18 11° 60° (ENE) 21:19:06 145.935 - 145.965
Oscar 11 25 Nov 21:18:25 21:21:08 16° 270° (W) 21:23:50 .
Max Valier Satellite 25 Nov 21:18:58 21:22:36 80° 257° (WSW) 21:26:16 145.860
nSIGHT-1 25 Nov 21:27:57 21:31:07 57° 346° (NNW) 21:34:18 .
ESTCUBE 1 25 Nov 21:38:30 21:41:35 19° 60° (ENE) 21:44:41 437.505/2401.250
RS-15 25 Nov 21:50:31 22:01:54 40° 342° (NNW) 22:12:58 29.354- 29.394
PRISM 25 Nov 21:55:00 21:57:33 16° 90° (E) 22:00:05 437.425
SO-50 25 Nov 22:05:07 22:09:28 50° 315° (NW) 22:13:54 436.795
O/OREOS (USA 219) 25 Nov 22:07:03 22:11:38 72° 63° (ENE) 22:16:08 437.305
STRAND 1 25 Nov 22:09:41 22:11:21 11° 309° (NW) 22:12:59 437.568
UNISAT 6 25 Nov 22:25:47 22:30:05 89° 275° (W) 22:34:21 437.425
ISS 25 Nov 22:28:17 22:31:27 44° 356° (N) 22:34:37 437.550
TIGRISAT 25 Nov 22:28:43 22:33:01 89° 121° (ESE) 22:37:16 435.000
FO-29 25 Nov 22:40:21 22:47:07 33° 302° (WNW) 22:53:34 435.910
EO-88 25 Nov 22:41:25 22:43:19 14° 270° (W) 22:45:14 145.990 - 145.960
PCSat 25 Nov 22:41:36 22:45:45 23° 108° (ESE) 22:49:53 145.827
LO-87 25 Nov 22:47:33 22:51:09 76° 258° (WSW) 22:54:45 145.935 - 145.965
AIST 2D 25 Nov 22:59:23 23:02:19 24° 95° (E) 23:05:13 435.315
nSIGHT-1 25 Nov 23:04:32 23:07:40 45° 6° (N) 23:10:46 .
POLYITAN 1 25 Nov 23:06:48 23:08:02 11° 87° (E) 23:09:16 437.675
VELOX 1 25 Nov 23:12:34 23:16:17 27° 64° (ENE) 23:20:01 145.980
ESTCUBE 1 25 Nov 23:13:31 23:17:57 60° 259° (W) 23:22:26 437.505/2401.250
QB50P2 25 Nov 23:28:55 23:32:09 21° 93° (E) 23:35:22 145.880/145.840
PRISM 25 Nov 23:29:04 23:33:11 57° 288° (WNW) 23:37:14 437.425
SPROUT 25 Nov 23:30:39 23:34:50 55° 72° (ENE) 23:39:01 437.525
DX 1 25 Nov 23:43:32 23:46:02 15° 58° (ENE) 23:48:32 434.975-435.025
O/OREOS (USA 219) 25 Nov 23:47:57 23:50:25 15° 261° (W) 23:52:53 437.305
SO-50 25 Nov 23:48:18 23:50:59 15° 338° (NNW) 23:53:42 436.795
UNISAT 6 26 Nov 00:04:32 00:06:07 12° 303° (WNW) 00:07:42 437.425
ISS 26 Nov 00:04:58 00:08:14 64° 16° (NNE) 00:11:28 437.550
RS-15 26 Nov 00:07:05 00:18:18 39° 16° (NNE) 00:29:01 29.354- 29.394
TIGRISAT 26 Nov 00:07:24 00:09:03 12° 303° (WNW) 00:10:41 435.000
DUCHIFAT 1 26 Nov 00:09:49 00:13:44 38° 98° (E) 00:17:36 145.980
UKube-1 26 Nov 00:14:14 00:17:14 19° 61° (ENE) 00:20:15 .
NANOSAT C BR1 26 Nov 00:23:12 00:27:21 60° 101° (E) 00:31:28 145.865
PCSat 26 Nov 00:23:16 00:28:39 67° 308° (NW) 00:34:05 145.827
EO-79 26 Nov 00:23:24 00:27:36 69° 102° (ESE) 00:31:46 145.935-145.965
AIST 2D 26 Nov 00:32:27 00:35:27 26° 292° (WNW) 00:38:26 435.315
50 SAT 26 Nov 00:39:04 00:42:09 42° 71° (ENE) 00:45:14 437.505
POLYITAN 1 26 Nov 00:40:11 00:44:23 81° 285° (WNW) 00:48:34 437.675
nSIGHT-1 26 Nov 00:40:50 00:44:02 73° 207° (SSW) 00:47:14 .
BUGSAT 1 26 Nov 00:42:46 00:45:55 22° 93° (E) 00:49:03 437.445
AO-91 26 Nov 00:46:08 00:48:08 13° 85° (E) 00:50:03 145.960
VELOX 1 26 Nov 00:48:24 00:52:34 38° 262° (W) 00:56:46 145.980
QB50P2 26 Nov 01:04:08 01:08:06 41° 291° (WNW) 01:12:03 145.880/145.840
MOZHAYETS 4 26 Nov 01:07:28 01:09:50 14° 57° (ENE) 01:12:12
SPROUT 26 Nov 01:08:15 01:11:03 17° 269° (W) 01:13:52 437.525
Gurwin Techsat 1B 26 Nov 01:13:18 01:17:21 22° 91° (E) 01:21:23 435.225
DX 1 26 Nov 01:17:16 01:21:39 75° 256° (WSW) 01:26:04 434.975-435.025
BEESAT 3 26 Nov 01:22:46 01:26:10 27° 117° (ESE) 01:29:36 437.485
BEESAT 26 Nov 01:29:04 01:32:22 19° 59° (ENE) 01:35:41 436.000
SO-50 26 Nov 01:32:42 01:33:24 10° 3° (N) 01:34:05 436.795
ISS 26 Nov 01:41:36 01:44:34 32° 215° (SW) 01:47:32 437.550
ITUPSAT 1 26 Nov 01:41:44 01:45:29 24° 61° (ENE) 01:49:15 437.325
DUCHIFAT 1 26 Nov 01:45:51 01:49:12 24° 296° (WNW) 01:52:31 145.980
Oscar 19 26 Nov 01:46:12 01:51:16 53° 100° (E) 01:56:20 437.125/150
UKube-1 26 Nov 01:48:36 01:52:51 56° 258° (WSW) 01:57:09 .
NANOSAT C BR1 26 Nov 02:00:00 02:02:37 16° 300° (WNW) 02:05:15 145.865
EO-79 26 Nov 02:00:28 02:02:51 15° 301° (WNW) 02:05:13 145.935-145.965
PCSat 26 Nov 02:09:16 02:13:06 19° 330° (NNW) 02:16:55 145.827
50 SAT 26 Nov 02:12:57 02:14:26 13° 269° (W) 02:15:55 437.505
BUGSAT 1 26 Nov 02:17:41 02:21:24 37° 291° (WNW) 02:25:06 437.445
nSIGHT-1 26 Nov 02:17:59 02:19:48 14° 223° (SW) 02:21:36 .
POLYITAN 1 26 Nov 02:18:29 02:19:26 11° 304° (NW) 02:20:23 437.675
AO-91 26 Nov 02:20:47 02:25:18 71° 287° (WNW) 02:29:18 145.960
RS-15 26 Nov 02:20:58 02:33:03 75° 47° (NE) 02:44:25 29.354- 29.394
MOZHAYETS 4 26 Nov 02:41:47 02:46:21 85° 256° (WSW) 02:50:56
BEESAT 2 26 Nov 02:46:02 02:49:57 55° 123° (ESE) 02:53:57 435.950
M-CUBED/EXP-1 PRIME 26 Nov 02:52:08 02:56:12 30° 101° (E) 03:00:17 437.505
Gurwin Techsat 1B 26 Nov 02:52:28 02:57:43 61° 290° (WNW) 03:02:57 435.225
BEESAT 3 26 Nov 02:59:47 03:03:34 39° 316° (NW) 03:07:23 437.485
BEESAT 26 Nov 03:04:56 03:09:40 66° 257° (WSW) 03:14:26 436.000
AO-7 26 Nov 03:06:23 03:13:50 34° 96° (E) 03:21:13 .
CUBESAT XI-V 26 Nov 03:07:12 03:11:34 44° 69° (ENE) 03:15:59 437.345
SO-50 26 Nov 03:12:29 03:15:42 18° 27° (NNE) 03:18:57 436.795
ITUPSAT 1 26 Nov 03:18:21 03:23:00 51° 260° (W) 03:27:40 437.325
AO-85 26 Nov 03:21:17 03:25:01 45° 121° (ESE) 03:28:56 145.980
Oscar 19 26 Nov 03:26:07 03:30:17 25° 299° (WNW) 03:34:28 437.125/150
ITAMSAT 1 26 Nov 03:49:58 03:54:58 45° 99° (E) 03:59:55 435.822/435.867
KKS-1 26 Nov 03:56:23 04:00:27 35° 67° (ENE) 04:04:33 437.445
PCSat 26 Nov 03:57:58 03:58:48 10° 356° (N) 03:59:38 145.827
AO-91 26 Nov 04:00:22 04:00:44 10° 308° (NW) 04:01:05 145.960
DOVE 4 26 Nov 04:00:58 04:03:17 13° 84° (E) 04:05:32 437.250
STARS 26 Nov 04:06:35 04:09:51 21° 61° (ENE) 04:13:08 437.465
MOZHAYETS 4 26 Nov 04:23:20 04:24:13 10° 274° (W) 04:25:06
BEESAT 2 26 Nov 04:24:37 04:27:58 24° 323° (NW) 04:31:21 435.950
M-CUBED/EXP-1 PRIME 26 Nov 04:26:20 04:30:36 39° 298° (WNW) 04:34:54 437.505
YUBILEINY 26 Nov 04:26:25 04:34:12 38° 84° (E) 04:42:03 435.215
RS-15 26 Nov 04:34:11 04:44:37 39° 253° (WSW) 04:54:36 29.354- 29.394
Gurwin Techsat 1B 26 Nov 04:34:52 04:36:38 12° 309° (NW) 04:38:24 435.225
BEESAT 3 26 Nov 04:40:46 04:42:10 11° 338° (NNW) 04:43:34 437.485
CUBESAT XI-V 26 Nov 04:45:27 04:49:08 23° 268° (W) 04:52:51 437.345
SO-50 26 Nov 04:52:21 04:56:59 68° 49° (NE) 05:01:40 436.795
AO-7 26 Nov 04:58:51 05:07:06 65° 296° (WNW) 05:15:19 .
AO-85 26 Nov 05:02:09 05:05:35 27° 323° (NW) 05:09:14 145.980
XW-2C 26 Nov 05:22:40 05:24:26 13° 89° (E) 05:26:11 145.795 - 145.815
XW-2F 26 Nov 05:28:09 05:30:08 14° 90° (E) 05:32:06 145.980 - 146.000
ITAMSAT 1 26 Nov 05:29:47 05:34:15 29° 298° (WNW) 05:38:41 435.822/435.867
FO-29 26 Nov 05:30:03 05:33:17 13° 41° (NE) 05:36:37 435.910
LilacSat-2 26 Nov 05:30:42 05:33:16 17° 91° (E) 05:35:49 437.200
KKS-1 26 Nov 05:33:11 05:37:03 28° 265° (W) 05:40:58 437.445
DOVE 4 26 Nov 05:36:35 05:41:46 89° 115° (ESE) 05:46:39 437.250
STARS 26 Nov 05:41:31 05:45:51 52° 260° (W) 05:50:12 437.465
PCSat 26 Nov 05:41:38 05:44:43 15° 23° (NNE) 05:47:47 145.827
KAITUO 1B 26 Nov 05:46:17 05:48:48 17° 91° (E) 05:51:18 145.475/437.950
CUTE-I 26 Nov 05:59:47 06:04:27 29° 94° (E) 06:09:03 437.470
STRAND 1 26 Nov 06:08:48 06:13:36 40° 66° (ENE) 06:18:23 437.568
